TimeAKST,TemperatureF,Dew PointF,Humidity,Sea Level PressureIn,VisibilityMPH,Wind Direction,Wind SpeedMPH,Gust SpeedMPH,PrecipitationIn,Events,Conditions,WindDirDegrees,DateUTC
12:01 AM,-20.9,-26.0,77,29.75,8.0,WSW,10.4,-,N/A,,Clear,240,2012-12-12 09:01:00
1:01 AM,-20.9,-26.0,77,29.73,10.0,SW,13.8,-,0.00,,Clear,230,2012-12-12 10:01:00
2:01 AM,-20.0,-25.1,78,29.71,10.0,WSW,11.5,-,0.00,,Clear,250,2012-12-12 11:01:00
3:01 AM,-20.0,-25.1,78,29.68,10.0,West,10.4,-,N/A,,Clear,270,2012-12-12 12:01:00
4:01 AM,-20.9,-26.0,77,29.66,10.0,South,6.9,-,N/A,,Clear,190,2012-12-12 13:01:00
5:01 AM,-22.0,-27.9,74,29.63,10.0,SSW,8.1,-,N/A,,Clear,210,2012-12-12 14:01:00
6:01 AM,-20.9,-26.0,77,29.61,10.0,SSW,8.1,-,N/A,,Clear,210,2012-12-12 15:01:00
7:01 AM,-20.9,-26.0,77,29.58,10.0,WSW,9.2,-,N/A,,Clear,250,2012-12-12 16:01:00
8:01 AM,-23.1,-27.9,78,29.57,10.0,WSW,8.1,-,N/A,,Clear,240,2012-12-12 17:01:00
9:01 AM,-23.1,-27.9,78,29.56,10.0,WSW,11.5,-,N/A,,Clear,240,2012-12-12 18:01:00
10:01 AM,-23.1,-27.9,78,29.54,10.0,WSW,9.2,-,N/A,,Clear,240,2012-12-12 19:01:00
11:01 AM,-22.0,-27.0,77,29.52,9.0,WSW,12.7,-,0.00,Snow,Light Snow,250,2012-12-12 20:01:00
12:01 PM,-22.0,-27.0,77,29.51,10.0,West,11.5,-,0.00,,Clear,260,2012-12-12 21:01:00
1:01 PM,-22.0,-27.0,77,29.50,8.0,WSW,10.4,-,N/A,,Clear,250,2012-12-12 22:01:00
2:01 PM,-22.0,-27.9,74,29.49,9.0,WSW,9.2,-,N/A,,Clear,250,2012-12-12 23:01:00
3:01 PM,-23.1,-27.9,78,29.49,10.0,WSW,8.1,-,N/A,,Clear,250,2012-12-13 00:01:00
4:01 PM,-22.0,-27.0,77,29.49,10.0,WSW,8.1,-,0.00,,Clear,250,2012-12-13 01:01:00
5:01 PM,-20.9,-26.0,77,29.48,7.0,West,8.1,-,0.00,Snow,Light Snow,260,2012-12-13 02:01:00
6:01 PM,-20.0,-25.1,78,29.48,5.0,West,10.4,-,0.00,Snow,Light Snow,270,2012-12-13 03:01:00
7:01 PM,-18.9,-24.0,78,29.48,10.0,West,11.5,-,0.00,,Clear,270,2012-12-13 04:01:00
8:01 PM,-18.9,-24.0,78,29.48,8.0,West,10.4,-,0.00,,Clear,260,2012-12-13 05:01:00
9:01 PM,-20.0,-26.0,74,29.48,10.0,West,10.4,-,N/A,,Clear,270,2012-12-13 06:01:00
10:01 PM,-20.9,-26.0,77,29.49,4.0,West,9.2,-,0.00,Snow,Light Snow,270,2012-12-13 07:01:00